Nebraska City, NE

10:33 AM CDT on August 28, 2016 (GMT -0500)
Nebraska City Municipal

Weather History for KAFK - December, 2013

Change the Weather History Date:

Wednesday, December 11, 2013

  Actual Average (KSDA) Record (KSDA)
Temperature  
Mean Temperature 15 °F -  
Max Temperature 28 °F 38 °F 66 °F (1965)
Min Temperature 2 °F 18 °F -2 °F (1962)
Degree Days  
Heating Degree Days 50    
Moisture  
Dew Point 3 °F    
Average Humidity 68    
Maximum Humidity 88    
Minimum Humidity 53    
Precipitation  
Precipitation 0.00 in - - ()
Sea Level Pressure  
Sea Level Pressure 30.52 in    
Wind  
Wind Speed 12 mph (NW)    
Max Wind Speed 22 mph    
Max Gust Speed 28 mph    
Visibility 10 miles    
Events      
Averages and records for this station are not official NWS values.
T = Trace of Precipitation, MM = Missing Value Source: NWS Daily Summary

Daily Weather History Graph

Daily Weather History Graph

Search for Another Location

Airport or City:

Trip Planner

Search our weather history database for the weather conditions in past years. The results will help you decide how hot, cold, wet, or windy it might be!

Date:

Astronomy

Dec. 11, 2013 Rise Set
Actual Time 7:37 AM CST 4:56 PM CST
Civil Twilight 7:06 AM CST 5:27 PM CST
Nautical Twilight 6:32 AM CST 6:01 PM CST
Astronomical Twilight 5:58 AM CST 6:34 PM CST
Moon 1:31 PM CST (12/11) 1:58 AM CST (12/11)
Length of Visible Light 10h 20m
Length of Day
9h 19m
Waxing Gibbous, 72% of the Moon is Illuminated
Dec 11
Waxing Gibbous
Dec 17
Full
Dec 25
Last Quarter
Jan 1
New
Jan 7
First Quarter

Hourly Weather History & Observations

Time (CST) Temp. Windchill Dew Point Humidity Pressure Visibility Wind Dir Wind Speed Gust Speed Precip Events Conditions
12:15 AM 26.2 °F 17.8 °F 19.9 °F 77% 30.23 in 10.0 mi NNW 8.1 mph - N/A   Scattered Clouds
12:35 AM 27.0 °F 14.3 °F 21.0 °F 78% 30.22 in 10.0 mi NNW 17.3 mph - N/A   Clear
12:55 AM 27.9 °F 16.3 °F 24.1 °F 86% 30.23 in 10.0 mi NNW 15.0 mph - N/A   Scattered Clouds
1:15 AM 28.4 °F 17.5 °F 25.3 °F 88% 30.25 in 10.0 mi North 13.8 mph - N/A   Mostly Cloudy
1:35 AM 28.8 °F 16.6 °F 24.1 °F 83% 30.26 in 10.0 mi NNW 17.3 mph 20.7 mph N/A   Overcast
1:55 AM 28.4 °F 15.8 °F 23.0 °F 80% 30.28 in 10.0 mi North 18.4 mph - N/A   Overcast
2:15 AM 26.6 °F 13.1 °F 20.7 °F 78% 30.30 in 10.0 mi North 19.6 mph 26.5 mph N/A   Mostly Cloudy
2:35 AM 25.7 °F 11.2 °F 20.1 °F 79% 30.32 in 10.0 mi North 21.9 mph 25.3 mph N/A   Mostly Cloudy
2:55 AM 24.4 °F 11.9 °F 18.1 °F 77% 30.35 in 10.0 mi North 15.0 mph 24.2 mph N/A   Scattered Clouds
3:15 AM 22.5 °F 8.9 °F 16.7 °F 79% 30.36 in 10.0 mi North 16.1 mph 21.9 mph N/A   Scattered Clouds
3:35 AM 21.0 °F 5.0 °F 15.6 °F 80% 30.38 in 10.0 mi North 21.9 mph 26.5 mph N/A   Scattered Clouds
3:55 AM 20.8 °F 6.8 °F 15.6 °F 80% 30.40 in 10.0 mi North 16.1 mph 21.9 mph N/A   Mostly Cloudy
4:15 AM 21.0 °F 7.1 °F 15.6 °F 80% 30.40 in 10.0 mi North 16.1 mph 25.3 mph N/A   Overcast
4:35 AM 20.3 °F 6.1 °F 14.9 °F 80% 30.42 in 10.0 mi North 16.1 mph - N/A   Overcast
4:55 AM 19.9 °F 6.7 °F 14.4 °F 79% 30.43 in 10.0 mi North 13.8 mph 21.9 mph N/A   Overcast
5:15 AM 19.4 °F 7.2 °F 14.2 °F 80% 30.44 in 10.0 mi North 11.5 mph - N/A   Overcast
5:35 AM 19.2 °F 3.0 °F 13.8 °F 80% 30.45 in 10.0 mi NNW 20.7 mph 26.5 mph N/A   Overcast
5:55 AM 16.9 °F 2.3 °F 9.7 °F 73% 30.47 in 10.0 mi NNW 15.0 mph - N/A   Overcast
6:15 AM 13.6 °F -3.0 °F 2.3 °F 61% 30.49 in 10.0 mi North 17.3 mph 27.6 mph N/A   Scattered Clouds
6:35 AM 11.3 °F -3.6 °F 0.5 °F 62% 30.51 in 10.0 mi North 12.7 mph - N/A   Clear
6:55 AM 10.0 °F -6.5 °F -0.4 °F 63% 30.52 in 10.0 mi North 15.0 mph 20.7 mph N/A   Clear
7:15 AM 8.6 °F -6.3 °F -1.1 °F 65% 30.53 in 10.0 mi NNW 11.5 mph - N/A   Clear
7:35 AM 7.3 °F -10.0 °F -1.5 °F 67% 30.55 in 10.0 mi NNW 15.0 mph - N/A   Clear
7:55 AM 6.4 °F -8.2 °F -2.2 °F 68% 30.57 in 10.0 mi North 10.4 mph - N/A   Clear
8:15 AM 5.9 °F -8.0 °F -3.1 °F 67% 30.58 in 10.0 mi NNW 9.2 mph 16.1 mph N/A   Clear
8:35 AM 5.9 °F -8.9 °F -3.3 °F 66% 30.59 in 10.0 mi NNW 10.4 mph - N/A   Clear
8:55 AM 6.3 °F -9.2 °F -3.3 °F 65% 30.60 in 10.0 mi NNW 11.5 mph - N/A   Clear
9:15 AM 6.8 °F -6.9 °F -2.7 °F 65% 30.61 in 10.0 mi NNW 9.2 mph - N/A   Clear
9:35 AM 7.2 °F -6.4 °F -3.3 °F 62% 30.61 in 10.0 mi North 9.2 mph - N/A   Clear
9:55 AM 7.7 °F -4.8 °F -3.1 °F 61% 30.63 in 10.0 mi North 8.1 mph - N/A   Clear
10:15 AM 8.1 °F -6.2 °F -2.4 °F 62% 30.64 in 10.0 mi NNW 10.4 mph - N/A   Clear
10:35 AM 8.6 °F -4.7 °F -1.5 °F 64% 30.65 in 10.0 mi NNW 9.2 mph - N/A   Clear
10:55 AM 8.6 °F -3.7 °F -2.4 °F 61% 30.65 in 10.0 mi North 8.1 mph - N/A   Clear
11:15 AM 9.0 °F -4.2 °F -1.8 °F 62% 30.64 in 10.0 mi NNW 9.2 mph - N/A   Clear
11:35 AM 9.5 °F -3.5 °F -2.2 °F 59% 30.64 in 10.0 mi NNW 9.2 mph - N/A   Clear
11:55 AM 9.9 °F -3.1 °F -1.8 °F 59% 30.65 in 10.0 mi NNW 9.2 mph - N/A   Clear
12:15 PM 10.4 °F -1.5 °F -2.4 °F 56% 30.64 in 10.0 mi NNW 8.1 mph - N/A   Clear
12:35 PM 10.9 °F -1.8 °F -1.8 °F 56% 30.63 in 10.0 mi NW 9.2 mph - N/A   Clear
12:55 PM 11.1 °F -1.6 °F -3.1 °F 53% 30.63 in 10.0 mi NNW 9.2 mph - N/A   Clear
1:15 PM 11.3 °F 0.7 °F -1.3 °F 57% 30.62 in 10.0 mi NW 6.9 mph - N/A   Clear
1:35 PM 11.7 °F -0.9 °F -1.5 °F 56% 30.61 in 10.0 mi NW 9.2 mph - N/A   Clear
1:55 PM 11.3 °F 0.7 °F -1.7 °F 56% 30.61 in 10.0 mi NW 6.9 mph - N/A   Clear
2:15 PM 11.8 °F 2.5 °F -1.7 °F 55% 30.61 in 10.0 mi NNW 5.8 mph - N/A   Clear
2:35 PM 11.5 °F 0.9 °F -0.6 °F 58% 30.60 in 10.0 mi NNW 6.9 mph - N/A   Clear
2:55 PM 11.7 °F -0.9 °F -0.8 °F 58% 30.60 in 10.0 mi WNW 9.2 mph - N/A   Clear
3:15 PM 11.1 °F 1.7 °F -1.1 °F 58% 30.60 in 10.0 mi WNW 5.8 mph - N/A   Clear
3:35 PM 10.9 °F 1.4 °F -1.3 °F 58% 30.60 in 10.0 mi WNW 5.8 mph - N/A   Clear
3:55 PM 10.4 °F 4.0 °F -1.7 °F 58% 30.60 in 10.0 mi West 3.5 mph - N/A   Clear
4:15 PM 10.4 °F - -1.3 °F 59% 30.59 in 10.0 mi Calm Calm - N/A   Clear
4:35 PM 9.5 °F - -1.3 °F 62% 30.59 in 10.0 mi Calm Calm - N/A   Clear
4:55 PM 9.1 °F - -1.8 °F 61% 30.58 in 10.0 mi Calm Calm - N/A   Clear
5:15 PM 7.3 °F - -2.7 °F 63% 30.58 in 10.0 mi Calm Calm - N/A   Clear
5:35 PM 6.8 °F - -2.7 °F 65% 30.58 in 10.0 mi Calm Calm - N/A   Clear
5:55 PM 5.9 °F -1.1 °F -3.5 °F 65% 30.58 in 10.0 mi SSW 3.5 mph - N/A   Clear
6:15 PM 4.5 °F -6.3 °F -4.0 °F 68% 30.58 in 10.0 mi South 5.8 mph - N/A   Clear
6:35 PM 4.1 °F -5.1 °F -4.0 °F 69% 30.57 in 10.0 mi SSW 4.6 mph - N/A   Clear
6:55 PM 4.1 °F -5.1 °F -3.8 °F 70% 30.57 in 10.0 mi South 4.6 mph - N/A   Clear
7:15 PM 3.2 °F -6.2 °F -4.2 °F 71% 30.56 in 10.0 mi South 4.6 mph - N/A   Clear
7:35 PM 2.3 °F -11.4 °F -4.4 °F 74% 30.55 in 10.0 mi South 8.1 mph - N/A   Clear
7:55 PM 3.2 °F -10.3 °F -4.0 °F 72% 30.55 in 10.0 mi SSW 8.1 mph - N/A   Clear
8:15 PM 4.8 °F -7.1 °F -2.7 °F 71% 30.55 in 10.0 mi South 6.9 mph - N/A   Clear
8:35 PM 4.8 °F -8.3 °F -2.7 °F 71% 30.55 in 10.0 mi South 8.1 mph - N/A   Clear
8:55 PM 5.0 °F -6.9 °F -2.6 °F 71% 30.53 in 10.0 mi South 6.9 mph - N/A   Clear
9:15 PM 4.5 °F -9.8 °F -2.7 °F 72% 30.52 in 10.0 mi South 9.2 mph - N/A   Clear
9:35 PM 5.0 °F -5.6 °F -2.2 °F 72% 30.52 in 10.0 mi South 5.8 mph - N/A   Clear
9:55 PM 5.7 °F -6.1 °F -2.0 °F 70% 30.52 in 10.0 mi South 6.9 mph - N/A   Clear
10:15 PM 4.5 °F -8.7 °F -2.9 °F 72% 30.53 in 10.0 mi SSW 8.1 mph - N/A   Clear
10:35 PM 4.1 °F -9.2 °F -2.6 °F 74% 30.53 in 10.0 mi SSW 8.1 mph - N/A   Clear
10:55 PM 5.7 °F -9.9 °F -1.7 °F 72% 30.52 in 10.0 mi SW 11.5 mph - N/A   Clear
11:15 PM 6.8 °F -10.0 °F -1.3 °F 69% 30.51 in 10.0 mi SW 13.8 mph - N/A   Clear
11:35 PM 6.8 °F -8.6 °F -1.3 °F 69% 30.50 in 10.0 mi SSW 11.5 mph - N/A   Clear
11:55 PM 6.3 °F -9.2 °F -1.5 °F 71% 30.49 in 10.0 mi SSW 11.5 mph - N/A   Clear